Regional Weather Roundup
Issued by NWS

Home | Current Version | Previous Version | Text Only | Print | Product List | Glossary On
Versions: 1 2 3 4 5 6 7 8 9 10 11 12 13 14 15 16 17 18 19 20 21 22 23 24 25 26 27 28 29 30 31 32 33 34 35 36 37 38 39 40 41 42 43 44 45 46 47 48 49 50
000
ASUS43 KMPX 190310
RWRMN
WEATHER ROUNDUP FOR MINNESOTA
NATIONAL WEATHER SERVICE TWIN CITIES/CHANHASSEN MN
900 PM CST SAT NOV 18 2017


NOTE: "FAIR" INDICATES FEW OR NO CLOUDS BELOW 12,000 FEET WITH NO
SIGNIFICANT WEATHER AND/OR OBSTRUCTIONS TO VISIBILITY. N/A MEANS
CURRENT SKY AND/OR WEATHER CONDITIONS ARE NOT AVAILABLE.

MNZ060>063-068>070-190400-
   Twin Cities Metro

CITY           SKY/WX    TMP DP  RH WIND       PRES   REMARKS
TWIN CITIES    CLEAR     22  12  65 NW20G25   30.02R WCI   7
ST PAUL        CLEAR     22  11  62 NW15G26   30.03R WCI   9
CRYSTAL        CLEAR     21  10  62 NW12      30.01R WCI   9
BLAINE         CLEAR     21  12  68 NW14      30.00R WCI   8
LAKEVILLE      CLEAR     21  12  68 NW14G20   30.01R WCI   8
EDEN PRAIRIE   CLEAR     23  12  62 NW10      30.01R WCI  12
SOUTH ST PAUL  CLEAR     23  11  60 NW16G25   30.01R WCI   9
LAKE ELMO      FAIR      23  14  68 NW13G21   30.00R WCI  11
$$
MNZ001>005-007-008-013>017-022>024-027-028-190400-
   Northwest Minnesota

CITY           SKY/WX    TMP DP  RH WIND       PRES   REMARKS
BEMIDJI        PTCLDY    13   7  78 W6        29.98S WCI   4
HALLOCK        CLOUDY     7   1  78 SW3       30.01S
ROSEAU         CLOUDY    12   7  79 W7        29.97S WCI   2
WARROAD        CLEAR     10   7  85 W8        29.96S WCI  -1
THIEF RVR FALL CLOUDY    12   7  80 W9        30.01S WCI   0
CROOKSTON      CLOUDY    14   9  79 NW7       30.05S WCI   4
FOSSTON        CLOUDY    12   7  79 W8        30.01R WCI   1
DETROIT LAKES  PTCLDY    18  10  73 NW8       30.03F WCI   7
MOORHEAD       CLOUDY    16   9  73 CALM      30.08F
PARK RAPIDS    CLEAR     15   8  73 NW13      29.99S WCI   1
MAHNOMEN       FAIR      14   8  77 W9        30.02F WCI   2
$$
MNZ006-009>011-018-025>026-190400-
   North Central Minnesota

CITY           SKY/WX    TMP DP  RH WIND       PRES   REMARKS
BAUDETTE       CLOUDY    12   6  77 W7        29.94S WCI   1
FLAG ISLAND    CLOUDY    10   5  79 W9        29.93S WCI  -2
INTL FALLS     CLOUDY    16   7  67 W8        29.92F WCI   5
WASKISH        CLOUDY    14   9  79 W12G17    29.96F WCI   0
BIG FORK       FLURRIES  16   9  73 W3        29.95R
LONGVILLE      CLEAR     16   9  73 W10G20    29.99R WCI   3
GRAND RAPIDS   FLURRIES  15   9  76 NW18G24   29.97R WCI  -2
CRANE LAKE     LGT SNOW  14   9  79 NW3       29.94R
ORR            CLOUDY    14   7  73 NW9       29.90R WCI   2
COOK           FLURRIES  14   9  79 W14G20    29.93R WCI  -1
WALKER         FAIR      13   7  79 W7        29.98S WCI   2
$$
MNZ012-019>021-037-190400-
   Northeast Minnesota

CITY           SKY/WX    TMP DP  RH WIND       PRES   REMARKS
DULUTH         CLOUDY    17  10  74 NW9       29.89R WCI   6
ELY            CLOUDY    14   7  73 NW13G23   29.89R WCI   0
HIBBING        CLOUDY    15   7  70 W13       29.92R WCI   1
EVELETH        FLURRIES  14   7  73 NW9       29.92R WCI   2
DULUTH HARBOR  CLOUDY    23  12  63 NW12      29.96S WCI  12
TWO HARBORS    CLOUDY    21  12  68 NW3       29.88S
SILVER BAY     CLOUDY    18  10  73 NW8       29.87S WCI   7
GRAND MARAIS     N/A     24  14  65 W6        29.87R WCI  17
G MARAIS ARPRT FLURRIES  16   9  73 NW7       29.78R WCI   6
$$
MNZ029>031-032-039>041-046>048-054>057-064-190400-
   West Central Minnesota

CITY           SKY/WX    TMP DP  RH WIND       PRES   REMARKS
FERGUS FALLS   CLOUDY    12   9  85 NW6       30.11S WCI   3
WHEATON        CLEAR     16   9  73 W7        30.12S WCI   6
MORRIS         CLEAR     19   9  63 NW13G20   30.07S WCI   7
ALEXANDRIA     CLEAR     18   9  68 NW12      30.04S WCI   5
ELBOW LAKE     FAIR      16   9  74 W12       30.07S WCI   3
WADENA         CLEAR     16   9  73 W9G16     30.02R WCI   4
GLENWOOD       CLEAR     18  10  73 NW17G25   30.04R WCI   2
APPLETON       CLEAR     21  10  63 NW9       30.10R WCI  11
BENSON         CLEAR     18   9  68 N14       30.09R WCI   4
ORTONVILLE     CLEAR     19  12  73 MISG      30.10R
MADISON        CLEAR     21  14  73 NW10      30.12R WCI  10
WILLMAR        FAIR      21  12  68 NW12      30.07R WCI   9
$$
MNZ033>034-036-042>043-049>051-058-059-190400-
   Central Minnesota

CITY           SKY/WX    TMP DP  RH WIND       PRES   REMARKS
ST CLOUD       CLEAR     18  12  77 NW9       30.02R WCI   7
SAUK CENTRE    FAIR      19  10  68 NW14      30.04R WCI   5
PAYNESVILLE    CLEAR     20  13  75 NW12      30.04S WCI   8
AITKIN         PTCLDY    14   9  79 W6        29.98R WCI   5
PINE RIVER     CLOUDY    14   9  79 W7        30.03R WCI   4
BRAINERD       CLEAR     17   8  67 NW16      30.01R WCI   2
STAPLES        CLEAR     14   9  79 NW13      30.02S WCI   0
LONG PRAIRIE   FAIR      18   9  68 W13       30.02S WCI   4
LITTLE FALLS   CLEAR     19   5  53 NW9G16    30.03R WCI   9
LITCHFIELD     CLEAR     21  12  68 NW13G21   30.05R WCI   9
BUFFALO        CLEAR     21  12  68 W9        30.04R WCI  11
MAPLE LAKE     CLEAR     22  14  71 NW13G24   30.03S WCI  10
HUTCHINSON     CLOUDY    22  14  72 W9        30.05R WCI  12
$$
MNZ037-044-045-052-053-190400-
   East Central Minnesota

CITY           SKY/WX    TMP DP  RH WIND       PRES   REMARKS
PRINCETON      CLEAR     19  12  73 W9        30.01R WCI   9
MORA           CLEAR     19  10  68 NW7       30.00R WCI  10
CAMBRIDGE      CLEAR     21  10  63 W8        30.01R WCI  12
RUSH CITY      MOCLDY    21  13  72 W10G16    29.98S WCI   9
MOOSE LAKE     CLOUDY    19  10  68 NW6       29.94S WCI  11
HINCKLEY       FAIR      21  12  68 NW7       29.97S WCI  13
CLOQUET        CLOUDY    18   9  68 NW17G25   29.92R WCI   2
MCGREGOR       CLOUDY    19  12  73 NW10      29.97R WCI   8
$$
MNZ071>073-080-081-089-090-097-098-190400-
   Southwest Minnesota

CITY           SKY/WX    TMP DP  RH WIND       PRES   REMARKS
MONTEVIDEO     CLEAR     19  10  68 N6        30.10R WCI  11
GRANITE FALLS  CLEAR     19  13  77 W7        30.12R WCI  10
CANBY          CLEAR     21  14  73 NW8       30.12S WCI  12
MARSHALL       CLEAR     20  12  71 NW10      30.10S WCI   9
REDWOOD FALLS  CLEAR     22  10  60 NW10      30.08S WCI  11
OLIVIA         CLEAR     21  12  68 NW12      30.06S WCI   9
PIPESTONE      CLEAR     25  12  58 NW12      30.08S WCI  14
WINDOM           N/A     21   9  58 NW15      30.07R WCI   8
WORTHINGTON    CLEAR     23  15  71 NW12      30.08R WCI  12
JACKSON        CLEAR     23  14  68 NW9       30.07R WCI  13
SLAYTON        CLEAR     20  14  76 NW7       30.09R WCI  11
$$
MNZ065>067-074>077-082>085-091>093-190400-
   South Central Minnesota

CITY           SKY/WX    TMP DP  RH WIND       PRES   REMARKS
MANKATO        CLEAR     23  14  68 NW14G22   30.05  WCI  11
NEW ULM        CLEAR     21  10  63 NW12G21   30.07R WCI   9
ST JAMES       CLEAR     21  14  73 NW13G18   30.08R WCI   9
GLENCOE        CLEAR     24  14  67 NW13G21   30.04R WCI  12
FARIBAULT      CLEAR     21  14  73 W15       30.02R WCI   8
OWATONNA       CLEAR     21  16  79 NW18      30.01R WCI   6
WASECA         CLEAR     23  14  68 NW15      30.04S WCI  10
ALBERT LEA     CLEAR     23  14  68 NW14G20   30.01S WCI  11
$$
MNZ078>079-086>088-094>096-190400-
   Southeast Minnesota

CITY           SKY/WX    TMP DP  RH WIND       PRES   REMARKS
ROCHESTER      MOCLDY    24  18  77 NW22G29   29.96R WCI   9
RED WING       CLOUDY    27  12  54 NW10G18   29.98R WCI  17
STANTON        CLEAR     24  15  67 NW13      30.00R WCI  13
DODGE CENTER   PTCLDY    21  16  79 NW18G25   29.97S WCI   6
WINONA           N/A     30  19  64 NW20G28   29.95R WCI  18
AUSTIN         CLEAR     23  16  74 NW15G22   29.99R WCI  10
PRESTON        CLEAR     25  18  75 NW17      29.94R WCI  11
$$
ABBREVIATIONS USED IN REMARKS
   TC - TEMPERATURES IN CELSIUS
  WCI - WIND CHILL INDEX
   HX - HEAT INDEX
  VSB - VISIBILITY
$$




USA.gov is the U.S. government's official web portal to all federal, state and local government web resources and services.